Location: Mauries
(43.6188°N, 0.3322°W)
Time: 23:45:37
(UTC+00:00)

CUBEBUG 2 - Pass Details

Date: 24 May 2026
Orbit: 545 x 628 km, 97.9° (Epoch: 5 June)

Event Time Altitude Azimuth Distance (km) Brightness Sun altitude
Rises 02:25:51 0° 14° (NNE) 2,722 ? -17.3°
Reaches altitude 10° 02:27:58 10° 15° (NNE) 1,826 ? -17.0°
Maximum altitude 02:31:55 80° 103° (ESE) 565 ? -16.6°
Enters shadow 02:33:53 28° 187° (S) 1,042 ? -16.4°
